Canton, MA

11:19 PM EST on January 19, 2017 (GMT -0500)
East Milton

Weather History for KMQE - October, 2011

Change the Weather History Date:

Monday, October 24, 2011

  Actual Average (KOWD) Record (KOWD)
Temperature  
Mean Temperature 52 °F -  
Max Temperature 61 °F 56 °F 78 °F (2001)
Min Temperature 44 °F 33 °F 18 °F (2002)
Degree Days  
Heating Degree Days 14    
Growing Degree Days 2 (Base 50)    
Moisture  
Dew Point 40 °F    
Average Humidity 66    
Maximum Humidity 83    
Minimum Humidity 56    
Precipitation  
Precipitation 0.00 in - - ()
Sea Level Pressure  
Sea Level Pressure 30.09 in    
Wind  
Wind Speed 9 mph (SSW)    
Max Wind Speed 15 mph    
Max Gust Speed 20 mph    
Averages and records for this station are not official NWS values.
T = Trace of Precipitation, MM = Missing Value Source: NWS Daily Summary

Daily Weather History Graph

Daily Weather History Graph

Search for Another Location

Airport or City:

Trip Planner

Search our weather history database for the weather conditions in past years. The results will help you decide how hot, cold, wet, or windy it might be!

Date:

Astronomy

Oct. 24, 2011 Rise Set
Actual Time 7:07 AM EDT 5:49 PM EDT
Civil Twilight 6:38 AM EDT 6:17 PM EDT
Nautical Twilight 6:05 AM EDT 6:50 PM EDT
Astronomical Twilight 5:33 AM EDT 7:23 PM EDT
Moon 4:19 AM EDT (10/24) 4:13 PM EDT (10/24)
Length of Visible Light 11h 39m
Length of Day
10h 41m
Waning Crescent, 7% of the Moon is Illuminated
Oct 24
Waning Crescent
Oct 26
New
Nov 2
First Quarter
Nov 10
Full
Nov 18
Last Quarter

Hourly Weather History & Observations

Time (EDT) Temp. Windchill Dew Point Humidity Pressure Visibility Wind Dir Wind Speed Gust Speed Precip Events Conditions
12:54 AM 44.1 °F 39.5 °F 34.0 °F 68% 30.18 in - West 8.1 mph - N/A   Unknown
1:54 AM 45.0 °F 41.2 °F 33.1 °F 63% 30.17 in - West 6.9 mph - N/A   Unknown
2:54 AM 45.0 °F 41.2 °F 33.1 °F 63% 30.17 in - West 6.9 mph - N/A   Unknown
3:54 AM 48.0 °F - 33.1 °F 56% 30.16 in - SSW 4.6 mph - N/A   Unknown
4:54 AM 45.0 °F 41.2 °F 33.1 °F 63% 30.17 in - South 6.9 mph - N/A   Unknown
5:54 AM 45.0 °F 41.8 °F 33.1 °F 63% 30.16 in - SSE 5.8 mph - N/A   Unknown
6:54 AM 45.0 °F 41.8 °F 33.1 °F 63% 30.16 in - South 5.8 mph - N/A   Unknown
7:54 AM 46.0 °F 41.0 °F 34.0 °F 63% 30.16 in - SSE 10.4 mph - N/A   Unknown
8:54 AM 48.9 °F - 36.0 °F 61% 30.17 in - South 10.4 mph - N/A   Unknown
9:54 AM 52.0 °F - 41.0 °F 66% 30.15 in - South 10.4 mph 16.1 mph N/A   Unknown
10:54 AM 57.0 °F - 43.0 °F 59% 30.14 in - SSW 9.2 mph - N/A   Unknown
11:54 AM 57.9 °F - 44.1 °F 60% 30.13 in - South 8.1 mph - N/A   Unknown
12:54 PM 59.0 °F - 44.1 °F 58% 30.10 in - South 12.7 mph 19.6 mph N/A   Unknown
1:54 PM 57.9 °F - 42.1 °F 56% 30.08 in - SSW 13.8 mph 18.4 mph N/A   Unknown
2:54 PM 57.9 °F - 43.0 °F 58% 30.06 in - SW 10.4 mph - N/A   Unknown
3:54 PM 57.0 °F - 43.0 °F 59% 30.04 in - SSW 10.4 mph - N/A   Unknown
4:54 PM 55.9 °F - 42.1 °F 60% 30.03 in - South 9.2 mph - N/A   Unknown
5:54 PM 54.0 °F - 43.0 °F 66% 30.02 in - South 12.7 mph - N/A   Unknown
6:54 PM 53.1 °F - 42.1 °F 66% 30.01 in - South 13.8 mph - N/A   Unknown
7:54 PM 51.1 °F - 43.0 °F 74% 30.01 in - South 13.8 mph - N/A   Unknown
8:54 PM 51.1 °F - 45.0 °F 80% 30.00 in - South 15.0 mph 19.6 mph N/A   Unknown
9:54 PM 50.0 °F - 45.0 °F 83% 29.99 in - SSW 12.7 mph - N/A   Unknown
10:54 PM 50.0 °F - 45.0 °F 83% 29.97 in - SSW 12.7 mph - N/A   Unknown
11:54 PM 50.0 °F - 45.0 °F 83% 29.96 in - SW 12.7 mph - N/A   Unknown